Precipitable_Water
0.23 0.14 0.13 0.11 0.12 0.13 0.14 0.15 0.15 0.16 0.19 0.19 0.21 0.21 0.20 0.21 0.21 0.21 0.19 0.20 0.20 0.18 0.17 0.18 0.18 0.16 0.15 0.15 0.15 0.18 0.30 0.38 0.34 0.40 0.40 0.41 0.43 0.47 0.50 0.51 0.55 0.59 0.59 0.71 0.81 0.96 1.05 1.09 1.17 1.20 1.29 1.33 1.34 1.31 1.33 1.38 1.42 1.39 1.46 1.52 1.50 1.60 1.69 1.67 1.60 1.53 1.49 1.47 1.48 1.47 1.43 1.41 1.48 1.49 1.53 1.54 1.54 1.48 1.43 1.44 1.45 1.46 1.49 1.51 1.50 1.49
0.22 0.15 0.12 0.13 0.13 0.14 0.15 0.16 0.16 0.18 0.21 0.20 0.21 0.20 0.20 0.22 0.20 0.22 0.21 0.21 0.21 0.18 0.18 0.18 0.17 0.17 0.15 0.14 0.15 0.16 0.18 0.21 0.40 0.37 0.38 0.39 0.44 0.46 0.46 0.49 0.52 0.58 0.64 0.74 0.81 0.93 1.01 1.12 1.18 1.22 1.22 1.22 1.18 1.22 1.26 1.32 1.43 1.52 1.61 1.59 1.62 1.66 1.65 1.67 1.61 1.58 1.48 1.47 1.42 1.39 1.41 1.45 1.47 1.47 1.48 1.46 1.49 1.46 1.45 1.44 1.43 1.44 1.47 1.49 1.48 1.46
0.16 0.13 0.13 0.13 0.15 0.14 0.15 0.17 0.18 0.18 0.20 0.22 0.21 0.20 0.20 0.21 0.24 0.25 0.23 0.22 0.21 0.20 0.17 0.18 0.17 0.17 0.17 0.17 0.17 0.18 0.18 0.17 0.29 0.41 0.42 0.40 0.47 0.49 0.51 0.50 0.52 0.55 0.60 0.73 0.80 0.83 0.88 1.00 1.15 1.18 1.20 1.24 1.26 1.34 1.36 1.41 1.43 1.39 1.46 1.51 1.70 1.73 1.70 1.65 1.64 1.55 1.46 1.44 1.46 1.47 1.49 1.47 1.45 1.54 1.55 1.52 1.50 1.49 1.44 1.45 1.47 1.46 1.45 1.45 1.46 1.44
0.16 0.16 0.15 0.15 0.16 0.15 0.15 0.18 0.17 0.18 0.20 0.19 0.19 0.18 0.18 0.23 0.23 0.20 0.20 0.20 0.19 0.18 0.18 0.19 0.18 0.18 0.20 0.19 0.17 0.17 0.18 0.18 0.26 0.36 0.43 0.46 0.49 0.50 0.50 0.49 0.47 0.47 0.51 0.59 0.71 0.76 0.86 0.95 1.07 1.14 1.26 1.35 1.40 1.35 1.42 1.43 1.39 1.38 1.37 1.65 1.62 1.58 1.61 1.60 1.56 1.49 1.49 1.45 1.48 1.54 1.55 1.53 1.49 1.44 1.53 1.52 1.50 1.47 1.44 1.40 1.44 1.44 1.45 1.45 1.42 1.43
0.17 0.19 0.21 0.19 0.18 0.17 0.15 0.17 0.16 0.16 0.18 0.23 0.22 0.21 0.20 0.23 0.24 0.21 0.20 0.20 0.20 0.21 0.20 0.19 0.17 0.17 0.18 0.17 0.17 0.17 0.17 0.18 0.18 0.34 0.46 0.52 0.48 0.49 0.51 0.49 0.45 0.43 0.47 0.54 0.66 0.75 0.81 0.90 1.10 1.12 1.16 1.24 1.35 1.29 1.30 1.29 1.28 1.36 1.39 1.55 1.53 1.49 1.56 1.57 1.49 1.43 1.48 1.47 1.46 1.50 1.52 1.53 1.48 1.50 1.47 1.41 1.38 1.39 1.39 1.38 1.37 1.39 1.42 1.42 1.39 1.40
0.23 0.26 0.29 0.24 0.22 0.19 0.18 0.16 0.15 0.16 0.16 0.20 0.28 0.25 0.24 0.27 0.25 0.23 0.21 0.19 0.19 0.18 0.19 0.17 0.14 0.15 0.18 0.17 0.16 0.17 0.16 0.17 0.19 0.16 0.37 0.42 0.44 0.49 0.50 0.46 0.44 0.43 0.45 0.48 0.56 0.66 0.75 0.93 0.98 1.00 1.10 1.09 1.08 1.13 1.11 1.16 1.19 1.21 1.34 1.42 1.37 1.39 1.38 1.36 1.37 1.40 1.44 1.42 1.40 1.39 1.35 1.32 1.32 1.28 1.28 1.22 1.22 1.26 1.28 1.29 1.36 1.38 1.35 1.37 1.39 1.40
0.21 0.28 0.29 0.25 0.21 0.20 0.17 0.15 0.16 0.18 0.17 0.18 0.23 0.28 0.24 0.25 0.25 0.22 0.19 0.19 0.16 0.14 0.19 0.21 0.15 0.13 0.18 0.16 0.17 0.18 0.18 0.18 0.20 0.20 0.21 0.38 0.39 0.40 0.43 0.45 0.43 0.42 0.45 0.49 0.54 0.63 0.79 0.87 0.92 1.03 1.05 1.08 1.06 1.11 1.13 1.15 1.10 1.15 1.25 1.34 1.31 1.31 1.36 1.36 1.38 1.39 1.41 1.41 1.41 1.34 1.30 1.28 1.23 1.18 1.22 1.31 1.32 1.27 1.31 1.34 1.30 1.32 1.32 1.37 1.39 1.43
0.22 0.24 0.25 0.27 0.24 0.21 0.17 0.15 0.18 0.20 0.18 0.17 0.23 0.27 0.24 0.21 0.19 0.19 0.17 0.17 0.16 0.18 0.20 0.22 0.20 0.15 0.13 0.14 0.17 0.19 0.20 0.20 0.20 0.21 0.22 0.22 0.28 0.43 0.44 0.47 0.47 0.48 0.48 0.44 0.46 0.62 0.80 0.80 0.87 0.89 0.98 1.07 1.11 1.12 1.11 1.12 1.13 1.13 1.18 1.25 1.29 1.32 1.33 1.36 1.35 1.38 1.41 1.36 1.34 1.31 1.30 1.30 1.26 1.24 1.23 1.29 1.29 1.32 1.32 1.30 1.30 1.31 1.33 1.39 1.42 1.36
0.22 0.23 0.23 0.24 0.23 0.21 0.19 0.18 0.22 0.23 0.22 0.23 0.24 0.20 0.21 0.20 0.21 0.19 0.17 0.16 0.16 0.15 0.14 0.19 0.20 0.14 0.12 0.14 0.16 0.17 0.16 0.19 0.39 0.44 0.50 0.49 0.46 0.49 0.52 0.55 0.54 0.53 0.53 0.57 0.65 0.75 0.79 0.85 0.86 0.93 0.98 1.09 1.13 1.11 1.06 1.07 1.09 1.17 1.18 1.17 1.24 1.28 1.27 1.28 1.33 1.31 1.30 1.29 1.27 1.26 1.26 1.23 1.26 1.30 1.32 1.34 1.33 1.30 1.30 1.24 1.28 1.29 1.33 1.36 1.34 1.29
0.26 0.25 0.27 0.25 0.22 0.20 0.21 0.24 0.23 0.24 0.21 0.21 0.23 0.23 0.24 0.23 0.22 0.21 0.20 0.19 0.19 0.16 0.13 0.15 0.18 0.13 0.11 0.14 0.16 0.19 0.20 0.25 0.37 0.40 0.50 0.56 0.43 0.40 0.44 0.52 0.64 0.78 0.84 0.96 0.95 0.92 0.91 0.93 0.99 1.05 1.09 1.08 1.11 1.15 1.11 1.09 1.13 1.12 1.16 1.16 1.18 1.18 1.24 1.25 1.27 1.24 1.21 1.19 1.20 1.20 1.22 1.20 1.20 1.25 1.29 1.30 1.26 1.25 1.24 1.18 1.23 1.27 1.27 1.25 1.22 1.22
0.26 0.29 0.28 0.26 0.24 0.24 0.24 0.25 0.28 0.27 0.24 0.24 0.22 0.19 0.20 0.20 0.19 0.20 0.20 0.19 0.17 0.13 0.14 0.15 0.17 0.15 0.11 0.15 0.22 0.22 0.39 0.43 0.43 0.47 0.54 0.60 0.61 0.61 0.65 0.66 0.75 0.74 0.77 0.83 1.05 1.13 1.10 1.09 1.11 1.12 1.09 1.12 1.15 1.16 1.13 1.11 1.07 1.07 1.07 1.11 1.10 1.16 1.17 1.17 1.13 1.17 1.20 1.16 1.16 1.16 1.18 1.16 1.16 1.23 1.24 1.21 1.20 1.21 1.18 1.18 1.21 1.21 1.21 1.20 1.14 1.16
0.23 0.24 0.25 0.27 0.28 0.26 0.26 0.27 0.27 0.27 0.25 0.21 0.19 0.18 0.18 0.19 0.20 0.18 0.17 0.17 0.13 0.11 0.14 0.15 0.16 0.18 0.11 0.18 0.33 0.45 0.51 0.52 0.47 0.46 0.49 0.49 0.60 0.64 0.63 0.70 0.79 0.85 0.87 0.83 0.92 1.09 1.15 1.18 1.16 1.16 1.13 1.15 1.16 1.17 1.16 1.09 1.06 1.02 1.01 0.98 0.91 1.06 1.07 1.03 1.03 1.02 1.05 1.13 1.13 1.16 1.17 1.14 1.16 1.21 1.21 1.18 1.14 1.15 1.14 1.19 1.17 1.18 1.19 1.15 1.15 1.12
0.20 0.21 0.25 0.29 0.30 0.29 0.25 0.24 0.26 0.22 0.23 0.20 0.18 0.18 0.15 0.15 0.15 0.12 0.14 0.11 0.11 0.10 0.12 0.15 0.15 0.15 0.15 0.34 0.49 0.50 0.56 0.58 0.58 0.58 0.56 0.57 0.58 0.66 0.73 0.72 0.77 0.81 0.83 0.81 0.79 0.91 1.05 1.06 1.07 1.06 1.10 1.12 1.13 1.15 1.14 1.09 1.05 1.03 0.97 0.86 0.78 0.86 0.99 1.05 1.14 1.16 1.19 1.15 1.15 1.17 1.19 1.18 1.21 1.23 1.19 1.18 1.15 1.16 1.16 1.18 1.17 1.16 1.12 1.10 1.06 1.06
0.19 0.22 0.23 0.27 0.29 0.29 0.28 0.21 0.22 0.19 0.20 0.22 0.18 0.17 0.14 0.12 0.12 0.11 0.12 0.12 0.12 0.14 0.16 0.16 0.21 0.15 0.32 0.42 0.49 0.52 0.60 0.63 0.63 0.65 0.67 0.67 0.65 0.67 0.74 0.80 0.85 0.87 0.86 0.85 0.87 0.95 1.03 1.04 1.04 1.04 1.03 1.04 1.06 1.12 1.18 1.18 1.13 1.06 1.08 0.95 0.70 0.82 1.02 1.07 1.12 1.13 1.17 1.24 1.24 1.22 1.22 1.23 1.26 1.24 1.22 1.19 1.17 1.16 1.19 1.19 1.18 1.15 1.10 1.05 1.03 1.04
0.17 0.18 0.21 0.24 0.22 0.28 0.26 0.24 0.24 0.21 0.20 0.20 0.22 0.18 0.16 0.14 0.12 0.10 0.11 0.11 0.12 0.14 0.20 0.25 0.20 0.20 0.23 0.39 0.57 0.60 0.64 0.65 0.70 0.69 0.69 0.71 0.71 0.73 0.79 0.80 0.83 0.89 0.92 0.91 0.92 0.96 1.01 1.06 1.08 1.09 1.07 1.04 1.06 1.15 1.27 1.28 1.31 1.23 1.11 1.06 0.95 0.88 0.97 1.04 1.06 1.09 1.14 1.22 1.27 1.26 1.26 1.28 1.28 1.26 1.24 1.23 1.22 1.18 1.20 1.22 1.19 1.15 1.12 1.05 1.05 1.05
0.20 0.20 0.24 0.27 0.26 0.28 0.27 0.27 0.26 0.24 0.23 0.23 0.23 0.22 0.18 0.16 0.18 0.11 0.15 0.14 0.14 0.16 0.16 0.21 0.23 0.36 0.31 0.53 0.62 0.65 0.64 0.65 0.68 0.69 0.70 0.66 0.70 0.72 0.73 0.79 0.82 0.85 0.87 0.93 0.95 0.97 1.00 1.02 1.00 1.02 1.08 1.12 1.05 1.06 1.13 1.26 1.36 1.29 1.15 1.09 1.05 0.98 1.01 1.04 1.05 1.08 1.13 1.21 1.27 1.33 1.30 1.29 1.28 1.26 1.27 1.25 1.24 1.23 1.24 1.23 1.19 1.13 1.09 1.05 1.05 1.07
0.21 0.20 0.25 0.27 0.27 0.28 0.28 0.28 0.24 0.24 0.17 0.22 0.21 0.17 0.19 0.24 0.21 0.17 0.16 0.18 0.18 0.17 0.16 0.23 0.30 0.35 0.47 0.51 0.56 0.61 0.60 0.63 0.69 0.71 0.71 0.72 0.72 0.70 0.68 0.73 0.80 0.84 0.87 0.90 0.91 0.91 0.92 0.95 0.96 0.98 1.00 1.02 1.05 1.11 1.09 1.16 1.29 1.26 1.19 1.12 1.07 1.03 1.01 1.03 1.05 1.08 1.13 1.21 1.26 1.32 1.36 1.32 1.27 1.26 1.25 1.23 1.21 1.26 1.27 1.22 1.16 1.09 1.06 1.07 1.08 1.07
0.22 0.22 0.26 0.27 0.26 0.28 0.31 0.30 0.27 0.24 0.24 0.23 0.20 0.22 0.26 0.27 0.23 0.19 0.15 0.16 0.14 0.13 0.17 0.20 0.23 0.30 0.30 0.28 0.53 0.56 0.58 0.63 0.68 0.72 0.75 0.76 0.76 0.71 0.73 0.75 0.79 0.83 0.86 0.89 0.92 0.97 0.98 1.00 1.03 1.04 1.03 1.08 1.13 1.14 1.13 1.21 1.28 1.31 1.23 1.14 1.08 1.06 1.02 1.04 1.06 1.12 1.17 1.24 1.29 1.31 1.32 1.33 1.29 1.28 1.28 1.25 1.22 1.28 1.24 1.19 1.13 1.10 1.05 1.04 1.06 1.08
0.24 0.21 0.26 0.30 0.32 0.31 0.33 0.32 0.27 0.25 0.27 0.24 0.23 0.30 0.23 0.20 0.15 0.17 0.15 0.12 0.13 0.13 0.15 0.18 0.25 0.29 0.33 0.35 0.46 0.52 0.56 0.60 0.65 0.71 0.72 0.72 0.75 0.76 0.77 0.79 0.82 0.86 0.86 0.86 0.89 0.93 0.94 1.00 1.03 1.07 1.10 1.16 1.18 1.25 1.29 1.31 1.28 1.31 1.31 1.26 1.23 1.18 1.17 1.16 1.18 1.24 1.31 1.34 1.31 1.27 1.25 1.27 1.28 1.30 1.27 1.24 1.28 1.28 1.19 1.13 1.11 1.09 1.08 1.08 1.07 1.04
0.26 0.19 0.23 0.31 0.31 0.32 0.32 0.30 0.24 0.22 0.25 0.27 0.26 0.24 0.26 0.24 0.21 0.17 0.16 0.16 0.15 0.14 0.15 0.18 0.26 0.25 0.40 0.41 0.50 0.51 0.58 0.64 0.65 0.68 0.70 0.76 0.78 0.80 0.80 0.81 0.84 0.87 0.88 0.90 0.92 0.94 0.96 1.00 1.04 1.07 1.11 1.07 1.09 1.18 1.26 1.30 1.30 1.25 1.22 1.25 1.26 1.28 1.24 1.20 1.23 1.28 1.25 1.28 1.29 1.26 1.28 1.30 1.31 1.29 1.23 1.27 1.28 1.24 1.18 1.10 1.10 1.10 1.08 1.07 1.06 1.02
0.25 0.26 0.19 0.26 0.32 0.33 0.26 0.29 0.26 0.26 0.24 0.21 0.22 0.21 0.22 0.24 0.28 0.25 0.26 0.20 0.16 0.14 0.15 0.16 0.19 0.34 0.45 0.58 0.57 0.57 0.62 0.66 0.69 0.70 0.74 0.76 0.80 0.84 0.85 0.87 0.87 0.87 0.90 0.91 0.92 0.93 0.95 1.01 1.06 1.09 1.08 1.09 1.06 1.10 1.21 1.25 1.23 1.25 1.25 1.22 1.24 1.23 1.17 1.17 1.20 1.20 1.18 1.20 1.25 1.29 1.29 1.30 1.30 1.26 1.26 1.27 1.29 1.25 1.16 1.09 1.08 1.10 1.08 1.08 1.04 1.04
0.22 0.25 0.21 0.24 0.26 0.27 0.27 0.31 0.31 0.29 0.28 0.26 0.23 0.20 0.21 0.21 0.22 0.19 0.18 0.25 0.24 0.20 0.18 0.17 0.19 0.36 0.56 0.65 0.60 0.62 0.67 0.69 0.73 0.74 0.73 0.77 0.81 0.84 0.85 0.86 0.86 0.88 0.90 0.94 0.94 0.92 0.91 0.91 1.00 1.03 1.05 1.08 1.11 1.10 1.09 1.13 1.14 1.13 1.16 1.20 1.21 1.23 1.21 1.21 1.24 1.23 1.21 1.21 1.26 1.30 1.32 1.33 1.31 1.27 1.28 1.27 1.27 1.24 1.14 1.08 1.07 1.08 1.08 1.05 1.08 1.09
0.27 0.26 0.23 0.20 0.23 0.27 0.28 0.32 0.33 0.32 0.30 0.29 0.27 0.24 0.23 0.22 0.22 0.21 0.17 0.22 0.25 0.26 0.28 0.27 0.24 0.36 0.62 0.68 0.70 0.70 0.72 0.70 0.71 0.77 0.77 0.79 0.81 0.82 0.83 0.86 0.87 0.89 0.88 0.91 0.94 0.98 0.97 0.94 0.93 0.96 0.98 1.02 1.06 1.08 1.08 1.09 1.14 1.15 1.19 1.23 1.24 1.22 1.24 1.28 1.29 1.32 1.31 1.29 1.30 1.33 1.36 1.34 1.28 1.26 1.27 1.27 1.26 1.22 1.15 1.10 1.07 1.08 1.06 1.06 1.07 1.07
0.31 0.26 0.23 0.23 0.27 0.29 0.32 0.35 0.37 0.34 0.30 0.28 0.28 0.32 0.25 0.22 0.21 0.20 0.20 0.23 0.24 0.27 0.24 0.26 0.23 0.38 0.60 0.69 0.70 0.70 0.72 0.72 0.73 0.77 0.76 0.78 0.79 0.81 0.79 0.82 0.85 0.87 0.90 0.91 0.94 0.97 0.99 0.98 0.97 1.00 1.00 1.01 1.03 1.04 1.05 1.08 1.10 1.13 1.16 1.23 1.28 1.25 1.25 1.26 1.30 1.31 1.31 1.32 1.30 1.33 1.35 1.33 1.32 1.24 1.26 1.26 1.25 1.21 1.16 1.11 1.08 1.09 1.07 1.08 1.04 1.00
0.28 0.31 0.26 0.23 0.21 0.23 0.27 0.32 0.32 0.35 0.36 0.40 0.40 0.39 0.37 0.32 0.30 0.31 0.29 0.29 0.23 0.28 0.26 0.23 0.21 0.35 0.59 0.72 0.73 0.71 0.68 0.67 0.70 0.77 0.79 0.74 0.76 0.76 0.77 0.78 0.80 0.82 0.82 0.83 0.85 0.89 0.94 0.97 0.97 0.99 1.00 1.01 1.04 1.05 1.07 1.07 1.06 1.07 1.11 1.14 1.19 1.27 1.28 1.31 1.34 1.35 1.35 1.32 1.28 1.31 1.32 1.33 1.31 1.23 1.24 1.25 1.24 1.20 1.14 1.09 1.08 1.08 1.06 1.03 0.96 1.00
0.35 0.34 0.27 0.20 0.18 0.17 0.18 0.22 0.26 0.29 0.33 0.39 0.44 0.40 0.39 0.35 0.31 0.29 0.25 0.25 0.23 0.28 0.29 0.27 0.30 0.44 0.63 0.69 0.65 0.66 0.65 0.67 0.72 0.75 0.77 0.77 0.74 0.73 0.74 0.77 0.78 0.80 0.79 0.79 0.81 0.83 0.85 0.88 0.92 0.95 0.97 0.98 1.00 1.02 1.03 1.06 1.08 1.10 1.15 1.20 1.16 1.19 1.26 1.26 1.30 1.30 1.30 1.27 1.21 1.24 1.30 1.29 1.26 1.23 1.23 1.24 1.23 1.18 1.11 1.07 1.08 1.07 1.07 1.00 0.92 1.00
0.39 0.42 0.37 0.30 0.25 0.25 0.30 0.37 0.46 0.45 0.43 0.35 0.40 0.40 0.39 0.40 0.37 0.33 0.33 0.30 0.26 0.32 0.31 0.35 0.35 0.42 0.50 0.55 0.58 0.61 0.64 0.63 0.64 0.67 0.69 0.71 0.73 0.73 0.74 0.74 0.76 0.77 0.76 0.77 0.78 0.81 0.84 0.84 0.85 0.86 0.89 0.90 0.92 0.95 0.97 1.00 1.02 1.06 1.11 1.16 1.23 1.24 1.22 1.24 1.25 1.26 1.27 1.29 1.25 1.27 1.29 1.28 1.24 1.22 1.27 1.25 1.21 1.18 1.10 1.08 1.08 1.05 1.03 1.00 0.98 1.01
0.42 0.35 0.41 0.39 0.36 0.36 0.41 0.39 0.47 0.46 0.41 0.44 0.41 0.41 0.42 0.38 0.39 0.35 0.32 0.32 0.41 0.32 0.28 0.43 0.47 0.40 0.44 0.52 0.55 0.57 0.60 0.61 0.63 0.64 0.65 0.69 0.71 0.71 0.71 0.74 0.77 0.77 0.76 0.75 0.76 0.76 0.77 0.80 0.81 0.81 0.83 0.85 0.87 0.89 0.91 0.93 0.95 0.97 1.01 1.06 1.13 1.18 1.18 1.22 1.24 1.24 1.26 1.27 1.25 1.24 1.31 1.28 1.26 1.24 1.28 1.28 1.25 1.16 1.10 1.11 1.12 1.08 1.05 1.03 1.00 1.01
0.43 0.35 0.46 0.41 0.40 0.45 0.44 0.44 0.50 0.46 0.45 0.45 0.46 0.46 0.42 0.43 0.40 0.36 0.40 0.45 0.43 0.33 0.31 0.46 0.48 0.40 0.47 0.52 0.57 0.59 0.61 0.61 0.60 0.63 0.64 0.71 0.72 0.71 0.72 0.73 0.74 0.74 0.74 0.72 0.72 0.73 0.74 0.74 0.76 0.78 0.80 0.83 0.85 0.85 0.86 0.88 0.90 0.94 0.96 1.00 1.06 1.12 1.17 1.22 1.22 1.22 1.21 1.26 1.30 1.26 1.30 1.29 1.31 1.29 1.29 1.30 1.23 1.15 1.11 1.14 1.12 1.09 1.06 1.03 1.00 1.00
0.49 0.41 0.46 0.44 0.40 0.43 0.44 0.43 0.47 0.43 0.44 0.44 0.46 0.48 0.50 0.48 0.45 0.46 0.46 0.48 0.45 0.42 0.45 0.48 0.48 0.44 0.49 0.52 0.56 0.60 0.64 0.64 0.66 0.67 0.66 0.66 0.68 0.68 0.69 0.71 0.73 0.74 0.73 0.73 0.73 0.74 0.75 0.75 0.76 0.79 0.81 0.84 0.84 0.83 0.84 0.85 0.88 0.91 0.93 0.97 1.02 1.05 1.13 1.21 1.21 1.20 1.21 1.23 1.24 1.32 1.33 1.34 1.31 1.28 1.32 1.27 1.22 1.15 1.13 1.13 1.11 1.08 1.06 1.01 0.99 0.98
0.48 0.42 0.48 0.45 0.40 0.42 0.45 0.46 0.45 0.42 0.42 0.40 0.46 0.48 0.49 0.51 0.50 0.50 0.49 0.48 0.49 0.46 0.48 0.48 0.45 0.42 0.51 0.57 0.58 0.63 0.64 0.64 0.65 0.62 0.61 0.63 0.65 0.66 0.66 0.68 0.71 0.72 0.73 0.74 0.75 0.74 0.75 0.75 0.76 0.77 0.79 0.81 0.82 0.82 0.83 0.85 0.87 0.91 0.93 0.95 0.98 1.05 1.13 1.19 1.20 1.22 1.24 1.26 1.30 1.37 1.38 1.35 1.27 1.24 1.26 1.29 1.21 1.14 1.11 1.10 1.10 1.09 1.06 1.02 0.99 0.96
0.53 0.47 0.52 0.44 0.36 0.38 0.49 0.45 0.43 0.44 0.42 0.41 0.42 0.46 0.47 0.47 0.43 0.48 0.45 0.50 0.45 0.43 0.47 0.47 0.43 0.42 0.51 0.58 0.60 0.61 0.61 0.60 0.58 0.59 0.61 0.62 0.63 0.64 0.65 0.66 0.68 0.71 0.72 0.74 0.74 0.74 0.74 0.74 0.75 0.76 0.76 0.78 0.81 0.83 0.84 0.85 0.87 0.89 0.90 0.93 0.98 1.03 1.11 1.15 1.16 1.21 1.21 1.27 1.24 1.35 1.32 1.31 1.27 1.26 1.25 1.27 1.25 1.16 1.14 1.10 1.08 1.07 1.06 1.01 0.98 0.96
0.50 0.48 0.44 0.40 0.34 0.35 0.47 0.46 0.43 0.42 0.40 0.35 0.37 0.45 0.49 0.49 0.52 0.52 0.53 0.55 0.53 0.52 0.43 0.38 0.40 0.49 0.53 0.58 0.54 0.55 0.56 0.57 0.57 0.59 0.60 0.61 0.63 0.64 0.64 0.66 0.69 0.70 0.71 0.74 0.74 0.74 0.75 0.75 0.75 0.76 0.77 0.78 0.78 0.80 0.83 0.86 0.88 0.87 0.89 0.93 0.96 1.03 1.08 1.12 1.18 1.21 1.24 1.30 1.29 1.31 1.32 1.31 1.26 1.25 1.26 1.22 1.24 1.24 1.17 1.10 1.08 1.07 1.04 1.00 1.01 0.98
0.46 0.46 0.42 0.45 0.31 0.36 0.44 0.43 0.42 0.35 0.25 0.27 0.46 0.53 0.52 0.49 0.49 0.44 0.44 0.49 0.53 0.54 0.50 0.52 0.52 0.54 0.54 0.54 0.53 0.53 0.55 0.56 0.57 0.62 0.63 0.64 0.65 0.64 0.66 0.67 0.68 0.69 0.72 0.74 0.75 0.76 0.76 0.76 0.77 0.77 0.78 0.79 0.80 0.81 0.82 0.84 0.84 0.86 0.90 0.94 0.98 0.99 1.06 1.07 1.14 1.20 1.25 1.29 1.30 1.31 1.32 1.29 1.26 1.25 1.24 1.22 1.25 1.26 1.16 1.12 1.08 1.07 1.06 1.02 1.00 0.97
0.40 0.40 0.37 0.41 0.34 0.34 0.41 0.39 0.31 0.24 0.26 0.43 0.51 0.54 0.57 0.56 0.55 0.51 0.50 0.51 0.52 0.54 0.53 0.52 0.52 0.53 0.55 0.56 0.56 0.56 0.58 0.59 0.63 0.63 0.64 0.64 0.68 0.67 0.66 0.68 0.68 0.71 0.72 0.72 0.73 0.75 0.77 0.77 0.77 0.77 0.78 0.79 0.81 0.82 0.83 0.82 0.83 0.85 0.88 0.91 0.95 0.99 1.02 1.07 1.11 1.14 1.16 1.18 1.24 1.27 1.28 1.26 1.25 1.22 1.23 1.24 1.26 1.23 1.18 1.14 1.10 1.08 1.06 1.03 1.00 0.98
0.38 0.35 0.37 0.33 0.33 0.37 0.33 0.30 0.21 0.24 0.40 0.48 0.50 0.54 0.59 0.58 0.56 0.52 0.47 0.51 0.53 0.53 0.54 0.51 0.53 0.55 0.56 0.56 0.57 0.59 0.58 0.59 0.60 0.62 0.64 0.66 0.67 0.65 0.66 0.66 0.70 0.72 0.71 0.72 0.72 0.74 0.76 0.77 0.77 0.76 0.77 0.81 0.82 0.82 0.82 0.81 0.83 0.83 0.83 0.88 0.90 0.94 0.99 1.05 1.09 1.11 1.15 1.18 1.22 1.23 1.22 1.23 1.22 1.23 1.26 1.26 1.23 1.18 1.15 1.12 1.11 1.08 1.08 1.03 1.02 1.01
0.40 0.36 0.35 0.29 0.35 0.24 0.27 0.27 0.27 0.38 0.37 0.41 0.42 0.46 0.50 0.45 0.47 0.45 0.36 0.43 0.53 0.55 0.55 0.54 0.55 0.56 0.57 0.57 0.58 0.59 0.59 0.57 0.54 0.56 0.62 0.64 0.67 0.69 0.70 0.68 0.71 0.72 0.73 0.76 0.76 0.76 0.78 0.78 0.77 0.77 0.78 0.80 0.81 0.81 0.80 0.82 0.83 0.82 0.82 0.83 0.85 0.87 0.91 0.98 1.04 1.08 1.11 1.12 1.16 1.19 1.21 1.19 1.17 1.17 1.19 1.18 1.14 1.13 1.11 1.10 1.11 1.12 1.10 1.04 1.02 0.99
0.43 0.31 0.38 0.28 0.29 0.29 0.23 0.22 0.25 0.25 0.22 0.31 0.44 0.52 0.59 0.58 0.57 0.55 0.47 0.41 0.54 0.57 0.59 0.55 0.54 0.56 0.57 0.59 0.59 0.59 0.59 0.52 0.46 0.49 0.58 0.62 0.66 0.67 0.69 0.68 0.70 0.72 0.74 0.76 0.78 0.77 0.78 0.79 0.80 0.80 0.79 0.78 0.78 0.80 0.81 0.82 0.82 0.82 0.81 0.81 0.82 0.85 0.86 0.89 0.92 1.01 1.06 1.06 1.11 1.16 1.18 1.18 1.16 1.15 1.15 1.15 1.14 1.12 1.12 1.15 1.16 1.13 1.08 1.05 1.03 0.98
0.41 0.40 0.38 0.29 0.28 0.26 0.23 0.19 0.20 0.19 0.24 0.39 0.44 0.51 0.57 0.60 0.58 0.57 0.44 0.35 0.50 0.56 0.58 0.57 0.55 0.57 0.58 0.59 0.59 0.60 0.53 0.44 0.43 0.49 0.58 0.62 0.64 0.66 0.67 0.69 0.69 0.68 0.70 0.72 0.74 0.74 0.76 0.78 0.80 0.80 0.80 0.80 0.77 0.79 0.81 0.81 0.82 0.81 0.79 0.79 0.81 0.83 0.84 0.86 0.89 0.93 0.97 1.03 1.10 1.11 1.14 1.16 1.17 1.16 1.15 1.14 1.13 1.14 1.14 1.14 1.14 1.14 1.11 1.10 1.08 1.02
0.34 0.33 0.31 0.26 0.25 0.26 0.23 0.20 0.19 0.26 0.27 0.39 0.48 0.52 0.58 0.62 0.60 0.51 0.30 0.31 0.49 0.56 0.59 0.58 0.57 0.58 0.59 0.60 0.60 0.58 0.52 0.45 0.46 0.53 0.62 0.63 0.64 0.66 0.66 0.67 0.68 0.69 0.69 0.69 0.70 0.70 0.71 0.74 0.75 0.76 0.77 0.77 0.77 0.80 0.79 0.80 0.79 0.79 0.77 0.77 0.80 0.80 0.81 0.84 0.88 0.92 0.96 0.99 1.02 1.07 1.10 1.11 1.11 1.12 1.13 1.13 1.12 1.13 1.14 1.13 1.13 1.12 1.11 1.09 1.08 1.05
0.33 0.32 0.31 0.25 0.25 0.26 0.24 0.24 0.28 0.31 0.42 0.49 0.51 0.57 0.59 0.60 0.54 0.34 0.26 0.39 0.54 0.58 0.61 0.61 0.59 0.60 0.60 0.59 0.60 0.54 0.58 0.60 0.60 0.63 0.65 0.66 0.65 0.65 0.68 0.69 0.69 0.70 0.70 0.71 0.70 0.70 0.69 0.70 0.71 0.71 0.71 0.72 0.73 0.75 0.76 0.77 0.77 0.77 0.76 0.76 0.76 0.78 0.80 0.83 0.87 0.91 0.92 0.94 0.96 1.00 1.03 1.07 1.08 1.07 1.08 1.11 1.11 1.11 1.11 1.10 1.08 1.08 1.07 1.04 1.05 1.05
0.34 0.34 0.35 0.34 0.29 0.26 0.26 0.23 0.25 0.33 0.46 0.54 0.57 0.58 0.59 0.50 0.32 0.30 0.48 0.61 0.60 0.59 0.62 0.62 0.59 0.61 0.62 0.61 0.61 0.61 0.63 0.66 0.67 0.66 0.65 0.65 0.65 0.67 0.68 0.69 0.69 0.70 0.72 0.73 0.73 0.72 0.69 0.67 0.67 0.68 0.68 0.68 0.68 0.70 0.71 0.72 0.73 0.74 0.74 0.74 0.75 0.77 0.80 0.82 0.85 0.86 0.88 0.90 0.91 0.93 0.94 0.98 1.02 1.02 1.03 1.05 1.07 1.06 1.06 1.08 1.08 1.07 1.06 1.07 1.05 1.03
0.35 0.30 0.29 0.30 0.33 0.33 0.30 0.26 0.25 0.21 0.42 0.57 0.57 0.54 0.57 0.41 0.42 0.54 0.59 0.61 0.63 0.61 0.60 0.61 0.61 0.61 0.62 0.60 0.63 0.63 0.64 0.64 0.64 0.65 0.65 0.66 0.66 0.66 0.67 0.68 0.68 0.68 0.68 0.69 0.70 0.72 0.71 0.69 0.68 0.68 0.69 0.70 0.69 0.69 0.69 0.69 0.70 0.71 0.71 0.71 0.73 0.76 0.79 0.81 0.83 0.83 0.84 0.85 0.86 0.86 0.88 0.90 0.91 0.93 0.96 0.99 1.02 1.01 1.00 1.00 1.00 1.00 1.01 1.00 1.00 0.99
0.43 0.31 0.30 0.33 0.38 0.28 0.26 0.24 0.26 0.39 0.49 0.58 0.55 0.43 0.52 0.54 0.60 0.61 0.60 0.56 0.61 0.61 0.60 0.60 0.61 0.62 0.62 0.61 0.60 0.60 0.62 0.62 0.62 0.63 0.63 0.64 0.65 0.66 0.68 0.69 0.69 0.69 0.69 0.70 0.70 0.70 0.70 0.70 0.70 0.70 0.71 0.72 0.73 0.73 0.71 0.68 0.67 0.68 0.69 0.70 0.74 0.75 0.77 0.77 0.77 0.78 0.79 0.80 0.81 0.83 0.85 0.86 0.88 0.89 0.91 0.92 0.94 0.96 0.96 0.97 0.98 0.97 0.95 0.93 0.91 0.89
0.44 0.38 0.40 0.33 0.42 0.35 0.32 0.36 0.45 0.52 0.55 0.58 0.57 0.55 0.58 0.60 0.62 0.62 0.61 0.59 0.58 0.59 0.62 0.59 0.59 0.61 0.62 0.61 0.60 0.59 0.58 0.59 0.59 0.61 0.61 0.62 0.64 0.65 0.66 0.67 0.68 0.68 0.69 0.68 0.68 0.70 0.70 0.69 0.69 0.71 0.72 0.74 0.74 0.75 0.75 0.74 0.71 0.69 0.68 0.69 0.72 0.72 0.73 0.74 0.76 0.76 0.77 0.76 0.75 0.76 0.77 0.80 0.82 0.84 0.86 0.87 0.88 0.87 0.89 0.90 0.91 0.90 0.91 0.91 0.90 0.87
0.48 0.49 0.48 0.43 0.42 0.49 0.50 0.49 0.51 0.51 0.53 0.54 0.58 0.59 0.57 0.58 0.61 0.61 0.59 0.57 0.58 0.59 0.60 0.58 0.59 0.60 0.60 0.61 0.58 0.58 0.57 0.57 0.57 0.57 0.57 0.58 0.60 0.62 0.64 0.65 0.66 0.68 0.69 0.69 0.68 0.69 0.69 0.70 0.71 0.71 0.70 0.72 0.74 0.74 0.75 0.75 0.74 0.70 0.71 0.74 0.73 0.71 0.70 0.71 0.72 0.73 0.75 0.76 0.75 0.72 0.71 0.71 0.72 0.76 0.78 0.79 0.79 0.79 0.79 0.79 0.79 0.79 0.80 0.81 0.80 0.79
0.44 0.46 0.42 0.37 0.43 0.38 0.31 0.47 0.45 0.45 0.48 0.50 0.51 0.55 0.58 0.58 0.57 0.58 0.57 0.57 0.56 0.57 0.58 0.58 0.58 0.58 0.57 0.57 0.55 0.54 0.54 0.56 0.55 0.56 0.56 0.56 0.56 0.57 0.59 0.60 0.61 0.62 0.62 0.62 0.65 0.66 0.67 0.67 0.67 0.67 0.68 0.69 0.72 0.73 0.74 0.74 0.75 0.75 0.76 0.76 0.77 0.76 0.73 0.70 0.70 0.70 0.71 0.71 0.71 0.70 0.67 0.65 0.63 0.63 0.65 0.67 0.68 0.69 0.69 0.71 0.72 0.71 0.69 0.69 0.67 0.67
0.36 0.45 0.37 0.39 0.39 0.34 0.34 0.40 0.40 0.41 0.42 0.44 0.44 0.42 0.43 0.46 0.48 0.49 0.50 0.50 0.49 0.49 0.50 0.49 0.50 0.49 0.52 0.51 0.53 0.53 0.54 0.55 0.54 0.54 0.54 0.55 0.56 0.56 0.57 0.58 0.59 0.60 0.62 0.63 0.64 0.64 0.64 0.64 0.63 0.64 0.64 0.63 0.67 0.70 0.72 0.73 0.73 0.74 0.75 0.77 0.79 0.78 0.76 0.72 0.70 0.69 0.70 0.71 0.71 0.72 0.70 0.66 0.62 0.59 0.57 0.55 0.54 0.53 0.56 0.61 0.63 0.64 0.62 0.61 0.61 0.62
0.37 0.40 0.30 0.35 0.30 0.32 0.35 0.34 0.34 0.35 0.34 0.35 0.36 0.37 0.40 0.41 0.40 0.40 0.41 0.42 0.43 0.43 0.44 0.46 0.46 0.45 0.46 0.45 0.48 0.48 0.48 0.52 0.55 0.55 0.54 0.54 0.55 0.56 0.57 0.57 0.59 0.60 0.61 0.62 0.63 0.64 0.63 0.63 0.63 0.63 0.63 0.63 0.64 0.65 0.67 0.69 0.71 0.73 0.73 0.73 0.76 0.77 0.76 0.74 0.73 0.72 0.71 0.70 0.71 0.71 0.73 0.72 0.71 0.69 0.67 0.65 0.62 0.60 0.59 0.56 0.55 0.55 0.57 0.61 0.61 0.60
0.29 0.23 0.27 0.26 0.22 0.23 0.24 0.28 0.30 0.21 0.22 0.29 0.32 0.34 0.35 0.38 0.38 0.37 0.38 0.38 0.39 0.39 0.41 0.40 0.41 0.44 0.45 0.44 0.44 0.44 0.43 0.45 0.47 0.50 0.51 0.54 0.55 0.56 0.57 0.58 0.58 0.59 0.60 0.61 0.62 0.62 0.62 0.62 0.62 0.62 0.63 0.63 0.65 0.65 0.65 0.65 0.66 0.68 0.69 0.69 0.69 0.71 0.71 0.71 0.71 0.71 0.71 0.72 0.70 0.70 0.71 0.69 0.68 0.68 0.67 0.67 0.67 0.65 0.63 0.63 0.63 0.62 0.59 0.57 0.59 0.59
0.27 0.29 0.27 0.21 0.20 0.21 0.29 0.31 0.31 0.29 0.27 0.29 0.30 0.33 0.34 0.35 0.34 0.32 0.32 0.34 0.35 0.37 0.38 0.38 0.37 0.39 0.41 0.43 0.45 0.43 0.43 0.43 0.44 0.46 0.46 0.47 0.49 0.53 0.56 0.58 0.57 0.58 0.58 0.60 0.60 0.59 0.59 0.59 0.60 0.61 0.60 0.62 0.63 0.64 0.64 0.65 0.65 0.65 0.66 0.66 0.66 0.65 0.65 0.66 0.67 0.68 0.68 0.68 0.68 0.69 0.69 0.69 0.69 0.68 0.66 0.64 0.63 0.63 0.61 0.59 0.59 0.59 0.59 0.58 0.56 0.56
Wind_Speed
15 15 15 16 15 16 16 16 16 15 15 15 14 13 12 11 10 9 9 11 10 9 11 11 9 10 11 11 10 8 6 10 13 15 15 15 15 15 14 14 15 16 16 17 17 17 18 20 19 17 17 16 16 16 16 17 17 18 17 16 16 18 19 18 18 17 16 15 14 13 12 13 13 13 12 12 12 11 11 11 11 11 11 11 11 11
15 16 15 16 16 16 16 16 16 16 16 15 14 12 11 10 9 8 10 10 9 8 10 10 10 12 12 12 12 11 11 11 13 14 15 16 16 15 14 14 14 14 15 16 17 17 17 17 17 16 16 16 16 16 16 15 15 14 14 14 14 16 18 18 17 17 15 15 14 13 13 13 13 13 12 12 12 11 11 11 11 11 11 11 11 12
15 15 16 16 15 16 17 16 16 16 16 15 14 12 11 10 8 7 8 9 9 9 11 10 10 12 11 12 14 14 14 14 14 15 16 16 16 15 15 14 14 13 14 15 17 17 16 16 16 16 15 15 15 15 15 14 13 12 12 13 12 13 15 16 16 15 15 15 15 14 13 13 13 12 12 12 12 12 11 12 12 11 11 11 12 12
15 15 15 16 15 15 17 16 16 16 15 14 14 13 13 13 10 8 7 8 9 10 10 10 10 12 12 13 15 16 17 16 16 16 16 16 15 16 16 15 15 15 15 16 17 17 17 16 15 14 13 12 12 11 11 11 11 11 10 10 10 10 12 13 13 14 14 14 15 14 14 13 13 12 12 12 12 12 12 12 12 11 11 12 12 12
16 15 14 15 16 16 16 16 16 15 15 14 12 12 13 14 12 10 9 8 10 11 11 10 12 15 14 14 15 15 16 17 16 16 17 17 18 17 17 17 16 16 16 16 16 17 17 15 14 14 13 12 12 11 9 8 7 7 8 8 8 8 10 11 11 11 12 14 14 14 14 14 14 13 12 12 12 12 12 12 12 11 12 13 13 12
17 16 15 15 16 16 16 16 16 15 14 13 12 11 13 15 13 12 11 10 10 12 13 12 13 15 14 13 13 13 13 15 14 14 16 18 20 18 18 19 18 17 17 16 16 16 15 14 15 15 14 14 14 13 12 10 6 6 7 8 9 9 9 9 10 10 11 13 14 14 15 15 15 14 13 13 12 13 13 12 12 12 13 13 13 13
16 16 16 17 17 17 17 16 16 15 14 14 14 12 13 15 16 15 15 14 12 13 13 11 11 14 14 13 13 13 13 15 15 14 15 17 19 20 20 20 20 18 17 17 17 16 15 15 15 15 15 14 14 14 14 13 11 9 8 8 9 10 10 10 11 11 12 13 13 14 14 15 15 14 14 13 13 13 13 12 12 12 13 13 13 13
16 16 16 16 17 18 17 16 15 14 13 14 15 15 14 14 15 16 16 15 14 15 14 12 11 14 15 14 14 13 14 14 14 14 14 14 15 17 19 20 20 19 18 18 18 16 16 16 16 15 15 14 14 14 14 14 13 12 11 11 11 11 12 12 12 12 12 13 13 14 14 14 14 14 14 13 13 13 13 13 13 13 13 13 13 13
15 16 16 16 16 15 15 14 14 12 13 13 13 15 15 13 14 14 15 15 14 15 16 14 12 14 15 15 14 13 12 11 9 9 9 10 11 11 14 18 17 15 15 16 15 16 16 16 15 15 14 14 14 14 15 14 14 14 13 13 13 12 13 14 14 14 13 13 13 14 14 14 14 14 14 13 13 14 13 13 13 14 14 14 13 13
14 14 16 15 15 15 14 13 14 14 14 13 13 14 15 13 13 12 12 13 12 13 14 14 12 13 15 15 14 12 10 9 8 6 5 7 8 9 10 12 11 9 10 11 13 15 15 14 14 14 14 14 14 14 14 15 15 15 15 15 15 14 14 14 14 15 15 13 13 14 14 15 15 15 15 14 14 14 14 14 14 14 14 13 13 13
15 13 15 15 14 15 14 13 14 15 14 13 13 14 14 14 13 11 11 11 11 12 13 12 12 12 13 12 11 9 8 8 9 8 6 6 7 8 7 7 8 8 9 10 12 14 13 12 12 13 13 14 14 14 15 16 17 17 17 17 16 16 16 15 14 14 15 14 13 13 13 14 14 14 15 15 16 16 15 15 15 15 14 14 14 14
17 14 14 15 14 13 13 13 13 15 15 14 12 12 11 12 11 11 11 10 11 13 13 12 12 12 11 10 9 8 8 8 8 9 9 8 8 8 7 7 8 9 9 10 11 11 9 8 9 11 12 13 14 15 16 17 17 18 18 17 17 18 18 17 15 15 15 15 15 13 12 12 13 13 14 15 16 16 16 16 16 15 14 14 14 14
18 16 13 14 14 12 12 13 13 14 14 13 12 11 10 10 9 10 10 11 12 13 13 13 13 12 10 9 9 8 8 8 8 9 9 8 8 8 7 8 8 9 9 10 10 11 10 9 10 11 12 14 15 17 17 18 18 18 18 17 17 18 18 16 15 15 15 17 16 14 13 13 13 13 14 14 15 16 17 17 16 16 16 15 15 15
16 16 15 14 13 12 12 12 12 14 12 11 12 12 11 10 9 9 10 10 11 12 12 11 10 10 9 8 9 8 7 7 7 8 7 7 8 8 8 8 9 10 10 10 10 11 12 12 12 13 14 15 16 17 18 18 19 19 18 17 16 16 16 16 15 13 14 16 16 14 13 13 13 13 14 14 15 16 17 17 16 16 17 16 15 15
14 15 16 16 15 13 13 13 13 14 13 13 13 12 13 12 10 10 10 9 10 10 9 8 8 8 9 9 9 7 7 7 6 7 7 6 7 8 9 9 10 11 11 11 11 12 13 13 13 14 15 15 16 17 19 19 19 20 19 17 15 15 16 16 15 13 12 14 16 15 14 13 13 13 13 14 15 16 16 17 16 17 17 16 16 15
15 15 16 16 16 15 13 13 14 14 14 14 14 13 13 13 12 11 11 10 8 7 8 7 7 8 9 9 9 7 7 7 7 7 6 7 8 8 9 10 11 12 12 13 13 13 14 14 14 15 15 16 16 17 19 20 19 19 19 17 16 16 17 16 15 14 13 13 15 15 14 14 14 13 13 13 14 16 16 17 17 17 17 16 15 14
14 14 14 14 14 15 14 12 13 15 14 12 14 15 13 12 12 12 12 11 9 8 9 9 8 9 9 9 9 7 7 8 8 7 7 8 8 8 9 10 11 12 12 13 13 14 14 14 15 15 16 16 17 17 18 19 20 20 20 19 17 17 18 17 15 15 14 14 15 15 15 15 15 14 14 14 15 16 16 17 17 17 17 16 15 14
14 13 13 14 13 15 16 13 13 16 15 12 13 14 12 11 12 12 10 10 9 9 10 10 9 9 9 9 9 8 8 8 8 8 7 7 8 8 8 8 9 10 11 12 12 12 13 13 13 14 15 16 17 17 17 18 19 19 19 19 19 18 18 17 17 15 15 16 17 17 16 16 16 15 15 15 16 16 17 17 17 17 17 17 16 15
14 12 12 14 14 13 14 14 13 15 16 15 12 11 10 10 12 13 11 9 8 9 10 9 8 9 9 10 9 8 7 8 8 8 7 7 6 7 6 6 7 7 8 9 9 10 10 10 11 12 13 14 15 15 16 16 17 17 17 18 18 18 17 17 17 16 16 16 17 17 17 16 16 16 15 15 16 17 17 18 18 18 18 17 16 15
14 12 12 14 13 12 13 13 14 14 15 15 13 11 11 10 10 11 12 11 9 9 10 8 7 9 10 10 9 8 8 8 8 8 8 7 6 6 5 5 6 6 6 6 6 7 7 7 8 9 9 9 10 11 12 13 14 14 16 16 17 17 17 16 16 17 16 16 17 17 17 17 17 16 16 16 16 17 18 18 18 18 18 17 16 15
14 13 12 13 13 12 13 14 14 14 14 14 14 13 12 11 11 10 10 11 10 9 10 9 8 10 10 9 9 8 7 8 8 7 7 7 5 5 5 4 5 5 5 5 5 6 5 6 6 6 5 4 4 5 5 8 10 11 13 14 15 15 16 17 16 16 16 16 17 17 17 18 17 16 16 16 17 18 19 19 18 18 18 18 16 15
16 15 14 14 13 13 13 13 13 13 13 13 14 14 14 12 12 10 10 11 10 9 10 9 9 10 10 8 8 8 8 7 7 7 6 6 6 5 4 4 4 4 5 5 5 5 5 5 6 6 6 4 4 4 2 2 5 8 11 12 13 14 15 16 16 16 16 17 18 18 18 19 18 17 16 16 17 19 19 19 19 19 19 18 17 15
16 16 15 15 15 14 13 11 10 12 14 13 12 13 15 15 14 13 12 12 11 10 10 9 9 10 10 9 8 7 7 5 5 5 4 5 5 4 4 4 4 4 5 5 5 5 5 5 5 5 5 5 3 3 3 2 2 6 8 10 11 13 14 15 16 16 17 18 19 19 19 20 19 18 17 17 18 19 19 19 19 19 19 18 17 16
14 14 15 15 14 14 14 12 10 9 10 11 10 10 12 14 15 15 14 13 11 11 11 10 10 11 10 9 8 7 6 4 3 3 3 4 4 4 4 4 4 5 5 6 6 6 6 6 5 5 4 4 3 3 3 3 3 4 7 8 9 11 13 15 16 16 17 18 19 18 19 20 20 19 18 18 19 19 19 19 20 20 19 18 18 17
12 12 13 13 12 12 13 12 11 9 8 9 9 8 9 11 11 11 12 11 10 11 11 11 11 11 9 8 7 6 5 4 3 3 3 5 5 4 3 3 4 4 5 5 5 6 6 7 6 6 6 5 5 5 5 5 6 7 8 9 10 12 13 14 16 17 17 18 17 17 18 20 21 20 19 19 20 20 20 20 20 20 19 18 18 17
13 12 12 13 12 12 13 12 12 11 10 9 9 8 8 9 9 9 9 9 9 10 10 10 11 11 9 7 6 5 5 4 4 4 5 6 6 5 4 4 4 5 4 5 5 6 6 6 7 7 8 8 8 8 8 9 10 10 10 11 12 13 14 15 16 17 18 18 18 17 17 20 21 20 20 20 20 21 20 20 20 20 19 18 18 17
12 11 10 12 12 13 13 12 11 11 10 10 9 7 7 9 10 10 10 9 9 9 7 9 11 11 9 7 7 6 6 5 4 5 5 6 7 6 4 4 4 4 5 5 5 5 5 6 6 7 8 8 9 9 10 10 11 11 11 12 12 13 15 16 17 17 18 18 19 18 18 20 21 20 20 20 21 21 21 20 21 20 19 18 18 17
12 11 10 10 11 12 13 11 9 9 9 8 8 7 8 8 8 10 10 11 11 9 8 9 11 10 9 8 8 7 7 6 5 5 5 5 5 5 4 4 4 4 5 5 5 6 6 6 6 7 7 8 9 9 10 10 11 11 11 12 13 14 15 16 16 17 17 18 18 18 18 20 21 21 21 20 20 21 21 20 21 20 20 19 18 17
14 13 11 11 12 11 12 11 10 9 8 7 6 6 7 7 7 9 10 11 11 11 11 11 10 8 8 7 7 7 7 6 5 5 5 4 4 5 4 4 4 4 5 6 6 6 6 6 7 7 7 8 9 10 10 10 10 11 11 12 12 14 15 15 16 17 17 18 18 17 18 20 20 20 22 21 20 21 21 21 21 20 20 20 19 17
14 14 13 13 12 11 10 11 11 10 9 7 6 6 7 7 8 8 9 9 9 9 10 10 9 8 8 8 6 6 6 6 5 5 5 5 5 6 5 4 5 5 5 5 6 6 6 6 7 7 8 8 9 10 10 10 11 11 11 12 12 13 14 15 16 16 17 18 18 18 18 20 20 21 22 22 21 21 21 21 21 21 20 20 18 17
15 16 15 13 13 12 12 11 11 10 9 7 7 7 7 8 8 8 9 9 9 9 10 10 10 9 10 9 7 6 5 5 5 5 5 5 6 6 5 5 5 5 5 5 6 6 6 7 7 8 8 8 9 9 10 10 10 11 11 12 12 12 12 13 14 16 16 17 18 18 17 19 20 21 21 21 21 21 21 21 22 21 20 19 18 17
14 15 15 13 13 13 13 12 11 11 9 7 7 8 8 8 8 8 8 9 9 10 11 10 10 11 10 9 7 7 6 6 6 6 5 6 6 6 5 5 5 5 5 6 6 6 7 7 8 8 9 9 9 9 9 10 10 11 11 11 11 11 10 10 12 14 14 15 16 17 18 19 20 20 21 21 21 21 20 21 23 21 19 18 18 17
11 12 13 13 13 13 13 12 11 11 10 9 9 9 9 9 9 9 9 8 8 10 11 10 10 11 10 9 7 7 7 7 7 6 6 6 6 6 6 6 6 6 6 6 6 6 7 8 8 8 9 9 9 9 9 9 10 10 11 11 10 9 8 8 8 9 11 12 13 16 18 19 19 19 20 20 21 20 20 22 22 21 19 18 18 18
10 11 11 11 12 13 14 12 11 10 11 11 11 10 9 8 8 9 10 9 9 10 10 10 10 10 9 8 8 8 8 7 7 6 6 7 7 7 7 7 7 7 6 6 6 6 7 7 8 8 8 9 8 8 8 8 9 10 10 9 9 8 6 5 4 5 8 9 11 13 17 18 18 18 19 20 20 20 20 21 21 20 20 19 18 18
10 10 11 10 11 13 13 12 10 11 12 12 12 10 10 9 8 8 9 9 10 10 10 10 10 10 9 9 9 9 8 7 6 6 6 6 7 8 7 8 8 8 7 6 6 7 7 7 7 8 8 8 8 8 8 8 8 9 9 9 8 8 6 4 3 3 5 7 9 11 14 16 16 17 18 20 20 20 20 21 20 19 19 18 18 18
11 11 11 10 10 12 12 11 11 11 12 12 11 10 10 10 9 8 8 9 10 11 11 11 11 11 11 11 11 10 9 8 7 7 7 7 8 8 8 8 9 9 8 7 7 7 7 7 7 7 7 7 7 8 8 8 8 8 8 8 8 7 6 5 3 2 3 5 8 10 13 15 16 17 18 19 20 20 20 20 20 19 18 18 17 17
12 12 12 11 11 11 10 9 10 12 11 11 11 12 12 12 12 11 9 9 10 11 11 12 12 12 12 13 14 13 12 10 8 8 8 8 9 9 8 8 9 8 8 7 7 7 7 7 7 7 6 6 7 7 8 7 7 7 7 7 7 6 6 5 3 2 2 2 5 8 11 13 15 16 18 19 20 19 19 19 19 18 18 17 17 16
12 12 12 11 11 11 11 10 11 12 12 11 12 12 12 13 13 12 11 10 10 11 11 11 12 12 13 13 15 16 15 12 11 10 10 9 9 9 9 9 9 8 7 7 7 7 7 7 7 6 6 6 6 7 7 7 6 6 6 6 6 6 5 4 3 2 1 1 3 6 8 10 11 14 15 17 18 19 18 18 18 18 18 17 17 16
11 12 12 12 11 12 11 10 11 12 12 12 12 12 12 13 14 13 11 10 10 11 11 11 11 11 12 12 13 15 15 13 12 12 11 10 10 10 9 9 9 9 8 8 8 7 8 7 7 6 6 6 6 7 7 7 6 5 5 6 6 5 5 4 3 2 1 2 3 5 7 8 9 11 12 14 16 17 17 17 17 18 18 18 18 17
10 11 12 12 12 12 11 9 9 11 11 12 12 12 11 11 12 12 11 10 10 11 10 10 10 10 11 12 11 12 13 13 13 13 12 11 11 11 10 10 9 9 9 9 9 9 8 8 8 7 7 7 7 7 7 7 6 5 5 6 6 5 5 4 3 2 2 2 3 5 7 8 9 10 11 13 15 17 17 16 17 18 18 18 18 18
8 9 10 11 11 11 11 9 9 10 10 11 11 11 10 10 10 10 11 11 10 9 7 7 8 9 10 11 11 12 12 12 12 12 12 11 11 11 11 10 10 9 9 9 9 9 9 8 8 7 7 8 8 8 8 7 6 6 6 6 6 6 5 4 3 3 2 2 2 3 5 7 8 9 10 12 14 16 16 16 16 17 17 18 17 17
8 8 9 9 10 10 10 9 9 9 9 9 10 9 9 9 10 9 9 9 8 6 5 5 6 6 7 7 8 10 11 11 11 11 11 11 11 11 11 10 10 10 10 10 10 10 10 9 8 8 8 8 8 8 8 7 6 6 6 6 6 6 5 4 4 3 3 2 2 3 4 5 6 7 8 10 12 13 14 14 15 15 15 15 15 15
8 8 8 8 9 9 9 8 8 9 8 7 8 8 7 8 9 8 7 6 5 4 4 4 4 5 5 5 6 6 8 9 9 9 10 10 10 10 10 10 10 10 10 10 10 11 11 10 10 9 9 8 8 8 8 8 7 6 6 6 6 6 5 5 4 4 4 3 3 3 4 4 5 5 6 7 8 9 10 11 12 12 12 12 13 13
6 7 8 8 8 8 8 8 8 8 6 5 6 7 6 6 7 7 6 5 5 5 5 5 4 5 5 5 5 5 6 7 8 8 8 8 8 8 9 9 10 10 10 10 10 11 11 10 10 10 9 9 8 8 8 8 8 7 6 7 7 7 6 5 5 5 5 5 4 4 4 5 5 5 6 6 6 7 8 9 9 10 10 11 12 12
5 6 7 6 6 6 7 8 8 7 6 5 5 6 6 5 6 6 5 5 5 5 6 5 5 5 5 5 6 6 6 6 7 8 7 7 7 7 7 7 8 8 9 9 10 10 10 9 9 9 9 9 9 9 9 9 8 8 8 8 8 7 6 6 6 6 5 5 5 5 5 5 5 6 6 6 7 7 8 8 8 8 9 10 10 11
7 7 7 7 9 9 8 8 8 8 7 6 6 6 6 6 5 5 5 5 5 5 5 5 5 5 5 5 5 6 6 6 7 8 8 8 8 8 7 7 7 7 8 8 8 8 8 9 9 9 9 9 10 10 10 10 9 9 9 9 8 8 7 7 6 6 5 5 6 6 6 6 7 7 7 7 7 8 8 8 8 8 9 9 9 10
7 7 7 8 9 8 7 7 8 8 7 6 6 6 6 6 5 5 5 4 4 4 4 4 5 5 5 5 5 5 6 7 7 8 9 9 9 9 8 8 8 8 7 8 8 8 8 9 9 9 9 10 10 10 10 10 9 9 9 10 10 9 9 8 7 7 7 7 7 7 7 7 7 7 7 7 8 9 9 9 9 9 9 10 10 11
7 8 7 7 7 7 8 9 9 9 8 7 6 6 6 6 5 5 4 4 3 3 3 3 4 4 5 5 5 6 6 7 8 8 9 9 9 9 9 9 9 9 9 9 9 9 9 9 10 10 10 10 10 9 9 10 10 9 10 10 10 10 10 9 9 9 8 9 9 9 8 8 7 7 8 8 8 9 9 10 10 10 11 11 12 12
8 8 8 9 9 9 9 10 10 9 9 8 7 7 6 6 5 5 4 3 2 2 2 2 3 4 4 5 6 6 7 7 8 9 9 10 10 10 10 11 11 11 11 11 11 11 11 11 11 12 11 11 11 10 10 10 10 10 10 10 10 10 10 9 9 9 9 9 9 10 10 10 9 9 8 8 8 8 9 10 10 11 11 12 12 13
9 10 9 10 10 8 8 8 8 7 7 7 8 7 7 6 5 4 3 2 2 1 2 2 3 4 4 5 6 7 8 8 9 9 10 10 10 11 12 12 12 13 12 12 12 12 12 12 12 12 12 12 12 12 11 10 10 10 10 10 10 9 9 10 10 10 10 10 10 10 11 11 11 11 10 10 9 9 9 9 9 10 11 11 11 12
9 9 8 7 8 8 8 8 6 6 6 7 7 7 6 5 4 3 2 1 1 1 2 3 4 5 6 7 8 9 10 11 11 11 11 11 11 12 12 13 13 14 14 14 13 13 13 13 13 13 13 13 13 12 12 11 10 10 10 10 10 9 9 10 11 11 11 11 11 11 11 11 12 12 12 12 11 11 10 10 10 10 10 11 11 11
Wind_Direction
212 217 220 220 219 220 221 221 224 227 228 237 244 247 256 261 262 245 220 220 222 236 247 248 261 270 266 262 270 285 256 231 238 243 247 249 249 252 256 260 262 259 255 249 244 243 242 245 248 247 246 247 249 251 250 247 249 251 244 233 228 223 215 211 211 210 207 203 203 206 207 210 214 218 216 217 220 219 218 217 216 217 214 212 213 208
212 217 222 220 219 221 223 223 226 231 235 244 249 254 258 251 257 249 223 227 233 238 249 251 267 275 269 262 264 269 266 257 254 254 252 248 247 247 250 257 260 258 255 248 243 243 243 244 242 240 242 244 244 247 247 246 251 255 247 235 229 221 213 208 207 208 207 206 207 208 209 211 213 215 216 216 219 220 219 217 216 215 212 211 209 205
215 221 222 220 220 222 226 228 228 231 236 244 249 255 249 235 251 258 225 225 238 245 253 255 264 274 274 268 266 268 266 259 250 249 250 248 248 248 248 253 255 254 253 247 243 242 243 242 240 238 241 243 243 245 246 248 255 260 257 245 226 211 207 206 205 206 207 209 211 212 213 213 212 215 217 217 220 222 222 219 216 215 212 210 206 203
216 222 220 219 222 223 227 230 228 230 235 240 246 248 239 231 243 250 228 229 243 248 250 250 262 275 282 282 276 269 268 266 253 247 250 249 248 248 244 245 249 251 251 247 243 244 243 241 238 235 236 239 241 248 253 261 264 261 255 235 209 201 205 206 206 208 210 210 211 214 216 215 215 216 217 219 222 224 223 219 217 217 213 208 204 202
220 220 216 217 222 224 227 230 227 230 236 238 240 239 234 235 241 242 238 246 255 256 253 256 272 281 282 283 281 271 267 269 259 250 252 251 250 249 243 242 248 250 249 243 241 243 242 237 232 229 232 240 246 253 261 276 277 256 241 221 209 208 206 205 207 209 211 210 211 215 218 219 218 218 219 221 222 222 221 218 218 216 210 204 202 201
223 220 216 217 222 225 227 230 226 224 233 238 238 236 235 239 246 246 249 262 267 262 263 266 273 279 280 278 279 275 267 266 260 250 248 251 252 251 247 245 248 250 248 243 241 240 236 230 229 230 237 244 248 251 253 261 266 252 237 223 220 217 209 209 211 211 213 213 213 215 217 218 217 219 222 222 221 219 217 217 216 212 206 203 202 203
223 222 221 220 222 226 227 228 225 220 227 236 235 235 236 239 244 249 254 262 263 259 265 267 262 272 283 282 278 275 271 270 268 260 253 253 255 252 247 246 247 247 244 244 243 238 230 227 229 233 239 243 244 246 246 247 247 244 236 225 222 220 218 218 216 216 218 217 217 219 219 219 218 220 222 223 222 219 218 216 212 209 206 203 202 204
219 220 225 226 226 226 224 225 224 217 222 234 236 235 238 237 239 245 249 255 258 258 264 264 261 273 282 282 280 276 273 274 277 273 264 261 264 258 246 241 245 245 243 245 243 236 229 228 230 234 237 239 240 240 240 241 240 235 232 229 227 225 226 225 223 222 222 221 223 223 223 223 222 223 224 224 223 220 218 215 210 208 205 203 203 205
214 218 224 228 228 224 220 220 221 219 224 233 235 233 235 235 236 243 247 249 257 260 262 263 266 274 278 280 283 280 274 273 280 285 271 262 270 272 251 239 243 248 249 249 242 231 228 230 232 234 236 238 238 238 239 238 235 232 234 235 232 231 233 232 229 226 224 226 229 229 229 227 225 227 227 225 221 218 217 214 209 205 203 202 204 204
217 219 220 222 224 223 222 223 224 226 229 232 232 232 236 240 241 247 245 243 255 260 258 262 262 266 275 280 282 280 274 266 266 276 280 271 276 286 267 244 244 251 250 251 244 231 226 228 232 234 235 238 240 240 239 236 233 232 235 236 234 234 234 233 233 230 228 230 232 233 233 230 229 229 229 226 220 217 218 215 209 205 204 205 206 204
223 223 220 220 226 224 221 227 227 227 229 228 229 233 240 247 246 250 248 244 256 262 260 263 257 254 266 279 282 278 269 261 259 261 272 285 290 295 285 254 247 247 244 252 253 239 226 224 229 232 235 239 243 244 241 238 236 234 233 235 236 237 233 230 231 231 231 231 230 229 229 228 228 226 226 225 221 219 218 214 209 206 206 206 206 206
223 225 225 223 228 227 221 227 228 226 228 225 225 228 236 246 248 253 259 255 256 261 263 265 259 251 255 269 277 273 268 268 266 265 269 276 286 290 281 261 253 248 245 252 252 240 229 230 238 240 242 244 246 247 244 240 238 235 234 235 240 240 234 229 230 232 231 228 227 230 229 228 227 224 221 221 219 218 215 211 209 208 206 205 206 206
223 225 229 223 226 229 221 224 228 230 231 225 223 225 231 243 249 253 258 256 254 257 256 255 257 254 248 257 269 270 273 274 270 269 267 266 276 283 275 262 255 253 254 254 250 245 250 260 259 254 255 254 253 251 246 242 240 236 235 238 240 237 230 227 231 236 236 230 228 230 229 229 229 225 221 218 217 216 213 210 209 208 206 206 207 206
222 227 229 223 224 221 214 217 225 230 228 218 218 223 226 233 243 249 251 252 253 255 250 244 250 252 243 253 267 266 269 275 275 275 269 264 272 279 277 269 261 261 264 262 257 253 259 265 262 259 260 258 257 254 249 245 241 237 240 247 243 230 223 223 226 233 235 229 225 226 228 229 229 225 221 218 216 214 212 210 208 207 207 208 208 206
221 226 226 226 225 220 221 225 223 225 226 223 222 223 226 228 233 242 245 245 249 255 254 242 243 246 237 247 262 264 270 279 282 279 274 271 274 279 283 279 272 270 270 268 266 262 263 266 264 265 264 261 260 257 252 250 245 237 242 250 241 224 221 223 224 229 231 225 223 226 228 227 226 223 220 218 216 214 213 210 207 206 208 209 208 207
225 229 224 226 227 218 220 225 223 225 232 232 224 221 229 229 228 238 243 242 243 255 258 243 244 249 236 242 258 266 278 286 290 290 287 281 279 281 286 285 280 276 273 272 272 270 270 270 269 270 269 267 267 262 254 250 246 239 241 244 236 226 223 223 226 230 231 227 224 226 226 222 222 221 219 218 216 214 213 210 207 207 207 207 206 206
224 232 224 220 223 216 214 222 223 221 226 233 225 222 232 232 227 235 245 249 247 250 251 236 235 249 245 250 263 270 281 289 291 294 294 291 290 289 283 281 282 280 277 277 276 275 275 275 274 273 272 271 269 265 256 247 243 242 241 239 235 229 226 225 228 231 231 227 223 224 225 222 220 221 222 219 215 213 211 208 206 205 204 204 205 204
221 232 228 219 223 222 218 224 226 217 217 228 230 228 233 234 231 233 242 252 248 246 250 234 224 242 247 252 264 272 283 288 287 287 289 295 301 297 285 279 281 284 284 281 280 281 280 278 278 278 276 273 268 264 257 246 243 243 240 235 231 227 225 224 226 230 231 227 223 224 225 223 223 224 224 219 214 212 208 205 204 203 202 202 203 202
222 228 231 226 227 224 217 220 226 223 220 224 230 230 227 225 232 235 236 242 239 240 250 236 224 242 248 249 262 272 278 282 285 285 286 294 303 300 295 291 291 295 296 291 287 287 288 286 285 283 280 276 271 265 255 246 243 241 236 232 228 225 224 223 225 230 231 227 224 225 225 224 225 225 223 219 214 211 208 204 203 202 201 201 201 202
222 223 229 229 225 220 218 219 224 226 224 224 232 236 229 223 228 234 233 234 233 237 245 239 235 250 253 253 262 270 274 278 279 282 286 293 302 303 300 301 305 309 311 309 302 298 304 308 302 296 288 280 281 274 255 244 243 239 233 230 227 225 224 225 228 231 231 227 225 225 224 223 223 222 221 218 214 211 208 204 202 201 201 201 202 204
221 220 224 227 225 224 224 221 220 221 219 222 230 235 235 231 231 235 238 235 230 231 236 236 241 252 255 256 262 270 278 279 275 277 284 289 296 301 302 307 315 318 320 326 324 315 319 332 334 334 328 308 309 309 260 237 237 232 229 228 226 225 225 228 232 232 231 229 227 225 222 220 220 219 218 216 214 210 207 204 202 201 201 201 203 204
221 220 220 223 225 228 225 218 217 219 217 218 225 230 232 232 231 233 241 241 233 229 229 227 235 248 255 258 263 269 276 284 286 280 277 281 287 292 296 307 315 318 322 327 332 330 328 336 342 350 2 3 348 353 357 241 228 223 227 230 228 227 228 230 231 231 231 230 228 225 222 219 218 217 216 215 212 208 205 203 202 200 200 200 202 203
220 219 219 221 225 227 223 218 221 227 225 223 230 236 232 231 232 230 234 239 235 232 231 229 237 247 255 260 264 268 271 287 308 301 280 276 284 292 299 305 309 312 320 320 317 318 320 325 324 330 353 6 357 348 351 340 251 229 235 236 231 231 232 232 232 232 233 231 227 225 222 220 218 216 214 212 210 207 204 202 201 200 199 199 201 201
220 218 215 217 224 227 225 225 226 225 223 223 232 240 231 229 234 233 234 232 228 232 231 231 243 247 250 258 259 258 262 273 304 320 310 294 294 307 307 303 310 317 324 322 311 305 308 312 310 306 321 346 349 333 322 316 297 266 257 251 241 239 239 236 235 234 233 231 229 228 224 218 216 215 213 211 209 206 202 200 200 200 199 200 200 198
216 219 214 210 215 223 226 230 228 221 216 214 223 237 233 227 228 232 235 229 229 241 234 227 239 242 242 252 253 251 257 266 281 296 307 306 303 309 309 304 314 322 329 329 319 311 309 310 309 304 302 308 313 311 306 301 297 289 277 265 255 251 248 243 240 237 234 232 233 233 225 215 212 214 212 210 209 204 200 200 200 199 200 201 199 197
211 218 217 209 208 211 212 218 223 224 224 222 226 241 241 230 221 222 229 227 230 242 237 226 227 226 229 244 254 258 258 265 289 294 299 308 308 308 310 310 314 320 329 331 325 318 313 310 309 306 301 299 299 299 299 297 296 292 283 273 263 257 253 248 246 243 239 235 234 232 223 212 210 212 211 209 207 203 200 200 199 199 200 200 198 197
211 221 222 209 206 206 205 213 223 221 219 224 232 242 241 232 224 219 224 229 225 228 239 233 219 212 221 238 251 261 257 257 284 299 302 311 317 316 313 312 318 324 328 329 326 322 318 314 315 313 309 306 304 303 301 299 298 293 284 277 269 262 257 253 250 247 242 236 231 226 219 212 209 210 209 207 204 201 200 200 199 199 200 199 196 197
213 220 222 210 209 210 208 216 224 214 209 218 227 239 243 237 228 220 223 230 226 224 235 231 215 212 227 239 248 254 250 251 271 291 295 304 315 316 313 319 328 331 330 330 329 327 323 319 318 319 318 316 313 312 309 305 304 299 290 282 273 266 262 256 251 248 242 236 230 225 218 211 209 209 207 205 203 200 199 199 199 199 200 198 196 198
215 219 220 213 214 215 210 210 214 209 209 215 221 235 245 242 232 224 227 234 235 231 226 220 216 221 228 235 244 247 247 251 262 276 283 292 307 312 316 323 325 325 325 325 324 323 322 321 319 319 319 317 316 316 315 314 313 310 302 292 280 271 264 255 249 245 241 236 231 225 217 211 210 208 205 203 201 198 197 198 198 198 199 198 198 200
219 221 224 217 211 214 213 209 210 211 213 220 230 237 241 240 232 227 229 236 238 230 221 214 216 228 235 238 242 245 252 256 256 264 275 286 299 308 314 315 312 314 315 315 317 318 318 321 322 321 320 320 319 319 318 319 319 317 314 306 294 281 267 256 248 242 239 236 231 224 216 210 207 204 203 204 201 197 198 198 196 196 198 199 201 204
221 223 227 222 212 215 219 211 207 211 212 217 231 238 242 239 233 230 234 239 236 226 219 218 221 229 236 237 240 249 261 264 262 268 276 280 285 294 302 303 301 305 306 308 314 316 315 319 323 324 326 325 324 323 321 321 321 321 320 317 308 294 274 259 250 241 237 235 228 220 213 208 205 202 204 205 200 197 198 198 196 197 199 201 203 205
221 222 225 221 213 216 220 211 206 211 213 217 231 242 248 242 232 230 233 238 237 226 220 223 228 232 234 234 242 253 256 258 264 269 273 276 279 285 290 292 294 297 299 304 311 314 316 319 322 325 326 325 325 327 326 325 324 324 324 323 318 306 283 264 254 241 233 229 223 217 212 207 203 201 202 202 199 198 199 197 195 197 200 201 202 204
211 212 218 217 209 211 216 213 209 213 219 228 236 243 248 241 230 230 234 241 245 235 228 229 231 234 236 237 244 248 245 250 259 263 266 270 272 276 281 284 288 289 291 297 304 309 312 314 317 321 323 324 326 328 329 331 332 331 329 327 325 318 298 275 260 240 227 224 222 217 212 205 201 200 200 200 200 199 197 194 194 197 200 201 202 204
208 208 215 216 209 209 212 211 212 219 224 229 234 240 245 238 227 230 238 245 247 237 229 231 234 238 242 240 238 238 239 246 251 254 261 264 263 266 272 277 282 284 286 291 295 299 302 307 311 316 319 321 324 325 328 333 335 335 334 334 336 335 320 292 269 239 223 222 220 212 205 202 200 200 201 200 200 198 195 193 195 198 201 203 203 204
212 212 215 217 213 212 213 215 221 228 228 227 232 238 240 234 225 225 235 246 248 235 226 230 236 239 240 236 230 227 230 235 242 250 261 265 264 264 267 271 274 277 278 282 285 288 293 300 306 312 316 317 319 322 325 329 331 333 337 341 345 348 341 322 302 265 229 218 210 201 200 201 201 200 199 199 199 197 195 195 197 199 202 204 205 206
216 216 218 220 218 215 220 227 226 224 225 228 232 237 237 237 238 238 239 249 254 243 230 229 234 235 235 233 227 222 222 228 240 257 265 264 264 266 266 268 270 270 269 272 278 282 286 294 301 306 309 311 314 319 322 324 326 329 335 342 347 353 352 341 320 292 251 219 209 203 201 202 203 202 200 199 198 197 198 199 200 201 203 204 206 208
221 220 219 223 227 221 219 222 218 218 226 233 236 237 236 236 241 244 240 242 252 252 241 232 232 234 233 231 227 224 227 236 247 260 266 264 262 263 262 263 266 269 268 269 274 278 281 288 295 297 299 305 313 319 319 319 321 326 332 338 343 350 355 356 345 309 298 236 206 203 201 201 202 202 202 201 200 199 199 200 201 202 204 204 205 208
227 225 219 222 230 223 214 216 222 227 232 236 239 242 238 233 237 243 242 240 249 258 252 239 235 235 233 231 230 229 233 244 251 254 259 260 257 258 257 257 261 266 271 272 273 274 277 283 289 291 291 299 310 314 314 314 316 322 330 336 340 344 349 355 355 330 311 202 176 186 194 197 199 200 200 200 199 198 197 199 201 203 204 205 207 209
233 234 227 224 228 224 217 221 233 236 234 235 243 249 244 235 234 239 243 244 251 261 259 246 240 241 239 237 237 234 235 241 245 247 252 254 254 257 258 257 258 260 264 269 272 274 276 279 284 288 291 298 305 307 307 308 310 317 329 334 335 341 347 347 340 326 290 216 186 183 186 188 191 196 198 199 200 198 198 200 204 206 208 210 213 214
234 237 232 226 226 225 221 224 235 236 232 236 243 246 244 236 233 236 241 245 254 264 260 247 243 247 244 241 241 240 239 239 239 242 247 247 249 255 258 260 262 260 259 262 266 269 273 278 283 289 294 298 301 301 302 305 308 316 324 325 327 335 343 339 326 311 274 227 207 196 193 191 189 191 194 196 197 198 201 205 207 210 213 217 220 221
228 232 229 222 221 222 217 217 228 230 229 237 242 240 238 233 230 233 238 242 252 261 255 243 243 245 241 236 235 238 239 237 235 239 244 245 248 253 256 258 260 261 261 262 263 265 269 276 282 288 293 296 296 295 296 300 308 313 313 317 324 326 325 321 310 296 268 233 212 197 193 194 193 194 198 200 199 200 205 210 213 215 218 222 225 225
221 225 224 220 221 220 213 211 218 222 228 239 239 234 233 228 222 226 235 238 241 242 234 232 235 231 227 226 226 228 230 230 232 237 241 244 247 251 255 257 258 260 261 262 263 264 266 270 274 280 287 290 291 291 291 293 298 300 303 313 320 314 306 302 295 284 270 250 225 198 187 188 189 192 198 203 204 205 210 214 216 217 219 220 220 216
213 214 212 215 219 216 210 211 216 218 228 239 232 227 231 225 216 220 229 228 219 215 216 222 223 218 213 213 217 220 222 224 229 234 238 242 245 248 252 256 258 259 261 262 264 265 265 266 269 274 279 282 284 286 287 288 288 286 292 303 304 297 292 290 282 273 265 255 237 214 198 192 190 191 194 197 199 201 204 204 203 204 204 203 200 198
208 206 198 205 215 212 205 206 206 202 204 212 208 206 209 207 205 210 216 216 215 215 213 213 217 219 214 209 213 219 221 223 226 228 232 237 242 247 252 257 259 261 262 263 264 264 264 265 266 269 273 276 279 282 282 282 279 279 285 291 289 288 288 282 271 262 256 249 232 210 200 196 194 194 195 198 199 197 194 191 191 192 195 196 197 200
186 174 166 171 179 178 176 179 179 173 169 170 172 174 173 174 182 189 191 198 211 215 214 212 214 217 215 212 215 220 225 229 231 232 232 234 238 244 251 257 262 263 263 263 263 263 263 262 261 263 267 272 277 279 279 278 274 273 277 281 281 282 282 277 268 257 247 237 223 212 211 213 213 210 206 206 207 203 199 198 198 197 196 197 201 204
161 156 154 151 146 139 139 147 153 151 148 149 150 153 157 162 173 180 180 188 205 213 216 217 219 223 223 220 218 222 229 236 240 241 242 242 244 249 252 255 259 262 262 261 261 263 262 259 260 265 269 275 279 279 277 276 273 270 269 270 271 273 271 268 263 256 245 234 232 236 237 234 231 228 225 225 224 220 217 216 213 209 205 204 204 206
163 158 157 157 154 147 142 145 146 142 139 141 141 140 143 150 160 170 175 182 194 203 210 217 221 228 231 230 228 231 236 241 245 246 248 249 252 256 259 260 261 262 260 257 257 261 264 264 266 269 272 275 276 275 274 273 273 271 268 266 264 264 262 258 251 248 246 244 244 248 247 241 237 235 234 234 234 232 230 229 227 224 223 223 223 225
172 162 155 154 152 148 145 146 144 139 136 137 137 137 138 140 145 153 162 168 177 192 210 224 229 232 235 239 242 244 248 252 253 253 254 255 255 257 260 261 262 263 262 258 256 259 264 267 269 271 273 274 274 274 275 274 273 272 271 270 267 262 258 254 248 244 246 247 246 243 241 240 240 239 236 237 237 236 237 237 237 237 237 238 239 239
155 153 152 151 146 141 142 144 144 142 138 134 134 135 136 139 143 147 152 160 168 187 216 247 257 253 251 252 252 253 257 261 261 259 258 259 259 261 263 263 262 263 263 261 260 260 261 264 268 271 273 273 272 273 274 272 269 266 264 266 267 262 254 251 249 247 248 250 248 244 243 243 243 240 238 238 239 240 240 241 242 243 243 245 247 247
137 140 144 147 147 148 151 150 149 151 148 144 143 140 138 145 154 157 162 175 194 218 243 267 278 276 271 267 263 262 262 263 262 262 262 262 263 265 266 265 264 264 263 264 264 263 263 264 267 270 271 270 268 269 269 267 265 263 261 259 259 257 252 249 247 246 247 249 249 248 246 246 245 244 243 243 244 245 245 246 249 249 248 249 252 255
137 140 139 138 138 141 145 145 144 145 143 142 143 140 136 140 146 147 154 173 212 261 275 281 283 280 277 273 268 265 264 263 262 262 262 263 264 265 266 265 263 262 262 263 264 265 267 267 266 267 267 266 265 265 264 263 261 262 262 260 256 254 253 250 245 244 244 245 246 246 246 246 244 243 243 244 245 245 245 247 250 252 253 253 256 259